Погода в Ца-Ведено

Россия / Чеченская Республика     43°01′15″N   46°03′19″E
темп.,
°C
ветер,
м/с
пор.,
м/с
влажн.,
%
обл.,
%
осадки,
мм/ч
давл.,
гПа
погр.,
м
23 октября, сб
сб2300:00+11ю21620 0.0 102011
03:00+10ю21620 0.0 102111
06:00+9ю22630 0.0 102111
09:00+14ссз11490 0.0 1021244
12:00+16с21440 0.0 1020705
15:00+15с21470 0.0 1019633
18:00+11ю21660 0.0 102012
21:00+10ю22700 0.0 102013
24 октября, вс
вс2400:00+10ююз22690 0.0 101911
03:00+9ю22660 0.0 101915
06:00+9ю22690 0.0 102017
09:00+14ссз11515 0.0 1019358
12:00+16с32475 0.0 1017949
15:00+15с22515 0.0 1016792
18:00+10ююв11706 0.0 101610
21:00+9ю117215 0.0 101512
25 октября, пн
пн2500:00+8ююз117585 0.0 101511
03:00+8юз228094 0.0 101728
06:00+6сз5797100 2.1 1021904
09:00+3сз2497100 6.5 1025638
12:00+3зсз2497100 1.4 1025473
15:00+3зсз2596100 2.4 1026527
18:00+3юз2595100 0.6 1028522
21:00+2зсз3698100 2.8 1030593
26 октября, вт
вт2600:000з2691100 1.4 1032609
03:000зюз268576 1.7 1032606
06:00−2юз238713 0.0 103372
09:00+2зсз237321 0.0 1033692
12:00+4сз236789 0.0 1032898
15:00+4сз226489 0.0 1031898
18:00+1ююв117792 0.0 103315
21:000ююв21824 0.0 103314
27 октября, ср
ср2700:00−1ююв22794 0.0 103313
03:00−1ююв22751 0.0 103212
06:00−1ююв21721 0.0 103112
09:00+5св11530 0.0 1029226
12:00+8с22480 0.0 1027518
15:00+9ссз11520 0.0 1025437
18:00+4ю22710 0.0 102514
21:00+4ю22710 0.0 102416